Regional Weather Roundup
Issued by NWS

Home | Current Version | Previous Version | Graphics & Text | Print | Product List | Glossary On
Versions: 1 2 3 4 5 6 7 8 9 10 11 12 13 14 15 16 17 18 19 20 21 22 23 24 25 26 27 28 29 30 31 32 33 34 35 36 37 38 39 40 41 42 43 44 45 46 47 48 49 50
000
ASUS43 KLSX 222007
RWRMO
STLRWRMO ALL

WEATHER SUMMARY FOR MISSOURI
NATIONAL WEATHER SERVICE SPRINGFIELD MO
300 PM CDT SAT JUL 22 2017

NOTE: "FAIR" INDICATES FEW OR NO CLOUDS BELOW 12,000 FEET WITH NO
       SIGNIFICANT WEATHER AND/OR OBSTRUCTIONS TO VISIBILITY.
       CURRENT SKY AND/OR WEATHER CONDITIONS ARE NOT AVAILABLE FOR
       CHILLICOTHE AND FARMINGTON.

MOZ001>031-035>038-043-044-053-054-222100-
...NORTHERN AND WESTERN MISSOURI...

CITY           SKY/WX    TMP DP  RH WIND       PRES   REMARKS
KANSAS CTY INT MOSUNNY   97  76  50 NW3       29.83S HX 110
KANSAS C DTWN  SUNNY     97  75  49 W8        29.80S HX 109
LEE`S SUMMIT   SUNNY     97  74  47 W13G21    29.83S HX 108
ST JOSEPH      SUNNY     96  81  61 NW7       29.81S HX 118
CHILLICOTHE      N/A     95  80  61 CALM      29.81F HX 114
KIRKSVILLE     SUNNY     94  76  55 SW8       29.82S HX 106

$$
MOZ066>068-077>081-088>096-101>105-222100-
...SOUTHWEST MISSOURI...

CITY           SKY/WX    TMP DP  RH WIND       PRES   REMARKS
SPRINGFIELD    SUNNY     97  71  42 SW14      29.90F HX 104
JOPLIN         SUNNY    101  73  40 S15       29.87F HX 112
BRANSON        MOSUNNY   95  70  43 S6        29.93F HX 101

$$
MOZ032>034-039>042-045>050-055>058-069>072-222100-
...CENTRAL MISSOURI...

CITY           SKY/WX    TMP DP  RH WIND       PRES   REMARKS
COLUMBIA       SUNNY    101  72  39 W20G26    29.81F HX 110
JEFFERSON CITY SUNNY     99  73  43 SW14G23   29.79F HX 109
ROLLA          SUNNY     96  75  50 S15       29.86F HX 108
SEDALIA        SUNNY     97  78  54 SW14      29.83F HX 114
WHITEMAN AFB   MOSUNNY   99  73  43 W17       29.80F HX 108
WARRENSBURG    SUNNY     97  72  44 SW13      29.81F HX 105
OSAGE BEACH    SUNNY    101  72  39 W8        29.84F HX 110

$$
MOZ051-052-059>065-222100-
...EAST CENTRAL MISSOURI...

CITY           SKY/WX    TMP DP  RH WIND       PRES   REMARKS
ST LOUIS INTL  MOSUNNY  104  69  32 S20G30    29.78F HX 111
SPIRIT OF STL  MOSUNNY  103  70  34 SW16G25   29.76F HX 111
ST CHARLES     SUNNY    101  71  38 S13G22    29.77F HX 109

$$
MOZ072>076-082>087-097>100-106>115-222100-
...SOUTH CENTRAL AND SOUTHEAST MISSOURI...

CITY           SKY/WX    TMP DP  RH WIND       PRES   REMARKS
CAPE GIRARDEAU SUNNY     93  74  53 SW15      29.86F HX 103
POPLAR BLUFF   SUNNY     94  77  57 S14G22    29.86F HX 108
WEST PLAINS    SUNNY     95  70  44 S9        29.92F HX 101

$$




USA.gov is the U.S. government's official web portal to all federal, state and local government web resources and services.